Back to catalog

STARLINK-11652

AliveCommunicationsVLEO
NORAD 63315·PAYLOAD·🇺🇸 United States

Launched Mar 18, 2025 from Cape Canaveral Space Force Station

Loading…

Next Passes (next 24 hours)

TLE

FreshSource: CelesTrak SupGP

Epoch: Sep 14, 2026, 14:46 UTC

1 63315C 25057J   26257.61576389 -.00030009  00000+0 -23323-3 0  2570
2 63315  43.0009 205.7102 0001573 266.0005   4.4993 15.70837866    19

Track STARLINK-11652 in real time with AllMySat

Download on the App Store